www.pogodaiklimat.ru

Погода и климат >> Архив погоды >> Россия >> Ямало-Ненецкий АО >> Полуй


ПОГОДА в Полуе

  • Прогноз погоды в Полуе
  • Монитор погоды в Полуе

АРХИВ ПОГОДЫ в Полуе

Время (UTC), дата Ветер
(напр.,м/с)
 
Видим.   Явления Облачность Т
(С)
Тd
(С)
f
(%)
Тe
(С)
Тes
(С)
Комфортность P
(гПа)
Po
(гПа)
Тmin
(С)
Tmax
(С)
R
(мм)
R24
(мм)
S
(см)
18 9.06 С 3 50 км {дождь} 10/10 300 м
[Frnb]
+6.5 +5.0 90 +3 +3 1002.9 998.6
21 9.06 С 4-10
{11}
50 км 8/8 300 м
[St]
+4.0 +2.4 89 -1 -1 1005.3 1001.0
00 10.06 С 5-12
{12}
50 км 10/10 300 м
[Cu Sc]
+1.6 -2.6 74 -4 -4 1009.0 1004.6
03 10.06 С 6-12
{13}
50 км 10/10 600 м
[Cu Sc]
+2.6 -5.0 57 -3 -3 1011.7 1007.3 +1.6
06 10.06 С 4
{12}
н/о н/о +4.3 -4.8 52 +1 +1 1013.5 1009.1
09 10.06 С 3
{11}
50 км 6/6 600 м
[Cu med, cong]
+6.5 -5.3 43 +4 +8 1014.1 1009.7
12 10.06 СВ 2 н/о н/о +7.2 -5.2 41 +6 +6 1014.4 1010.1
15 10.06 В 2 50 км 9/0
[As trans Ci fib]
+5.4 -4.7 48 +4 +4 1013.4 1009.0 +8.0
18 10.06 ЮВ 3 н/о н/о +4.1 -4.0 56 +1 +1 1012.5 1008.1
21 10.06 ЮВ 3 50 км 10/0
[As op]
+3.6 -3.5 60 0 0 1011.1 1006.8
00 11.06 ЮВ 3 н/о н/о +1.9 -0.4 85 -2 -2 1009.5 1005.1
03 11.06 ЮВ 3 20 км слаб. дождь 10/8 300 м
[Frnb As op]
+3.1 +0.9 85 -1 -1 1007.5 1003.1 +1.7 0.7
06 11.06 ЮВ 3 н/о н/о +4.8 +3.0 88 +1 +1 1006.3 1002.0
09 11.06 ЮВ 2 4000 м слаб. морось 10/10 300 м
[St]
+5.7 +3.5 86 +3 +3 1006.1 1001.8
12 11.06 ЮВ 1 н/о н/о +7.0 +3.8 80 +6 +6 1005.6 1001.3
15 11.06 ЮВ 2 50 км 9/8 600 м
[Cu Sc Ac trans]
+7.2 +4.1 81 +5 +5 1004.3 1000.0 +7.5 0.5
18 11.06 ЮВ 1 н/о н/о +6.4 +4.3 86 +5 +5 1003.7 999.4
21 11.06 В 1 4000 м слаб. морось 10/10 300 м
[St]
+5.5 +4.2 91 +4 +4 1002.3 998.0
00 12.06 штиль 0 н/о н/о +5.9 +4.7 92 +5 +5 1001.3 997.0
03 12.06 штиль 0 50 км слаб. морось 10/10 300 м
[St]
+6.9 +5.4 90 +6 +6 1000.6 996.3 +5.4 1
06 12.06 СВ 3 н/о н/о +6.6 +3.6 81 +4 +4 1000.4 996.1
09 12.06 С 3 50 км 10/10 600 м
[Cb cap]
+7.9 +0.9 61 +6 +6 1000.5 996.2
12 12.06 С 3 н/о н/о +9.1 -1.7 47 +7 +7 1000.1 995.9
15 12.06 С 2 50 км 9/8 600 м
[Cb cap Ci sp]
+7.4 -2.0 51 +6 +6 999.8 995.6 +9.9 0.3
18 12.06 С 1 50 км 8/3 600 м
[Cu Sc Ac lent Ci fib]
+2.6 -2.9 67 +1 +1 999.5 995.2
21 12.06 СЗ 2 50 км 3/0
[Ac As]
+0.9 -2.5 78 -2 -2 998.1 993.7
00 13.06 СЗ 2 н/о н/о +2.0 -1.5 78 -1 -1 996.8 992.5
03 13.06 С 2 50 км в посл. час ливневой дождь 10/10 600 м
[Cb cap]
+0.1 -1.9 86 -4 -4 996.5 992.2 -0.6 1
06 13.06 С 2 н/о н/о +1.5 -3.1 71 -2 -2 996.5 992.2
09 13.06 СЗ 4 50 км в посл. час ливневой снег 10/10 300 м
[Cb cap]
+3.7 -4.8 54 -0 -0 996.8 992.5
12 13.06 С 3 н/о н/о +3.4 -6.0 50 0 0 997.6 993.3
15 13.06 СЗ 3 50 км в посл. час ливневой снег 9/6 600 м
[Cb cap Ac trans]
+2.3 -4.7 60 -1 -1 997.3 993.0 +3.8 0.4
18 13.06 СЗ 3 50 км в посл. час ливневой снег 8/8 600 м
[Cb cap]
+0.2 -2.8 80 -4 -4 996.9 992.6
21 13.06 СЗ 3 50 км слаб. ливневой снег 10/10 600 м
[Cb cap]
-0.4 -3.6 79 -5 -5 995.4 991.1
00 14.06 З 5-12
{12}
н/о н/о +0.2 -3.9 74 -6 -6 993.8 989.5
03 14.06 СЗ 4-10
{12}
10 км слаб. снег 10/10 300 м
[Frnb Ns]
+0.1 -1.2 91 -5 -5 993.7 989.4 -0.7 0.7 <0.5
06 14.06 СЗ 4
{11}
н/о н/о 0.0 -1.0 93 -6 -6 994.1 989.8
09 14.06 СЗ 5-10
{14}
4000 м слаб. снег 10/10 300 м
[Frnb Ns]
+0.5 -0.5 93 -6 -6 997.0 992.6
12 14.06 СЗ 5
{13}
н/о н/о +3.7 -2.3 65 -1 -1 999.4 995.1
15 14.06 СЗ 4-10
{12}
50 км 10/8 600 м
[Cu Sc Ac trans Ci fib]
+4.7 -2.3 60 +1 +1 1000.3 996.0 +5.5 9
18 14.06 СЗ 2
{11}
н/о н/о +3.0 -2.3 68 0 0 1000.8 996.4
21 14.06 ЮЗ 2 50 км 3/3 600 м
[Sc]
+1.2 -1.5 82 -2 -2 1000.7 996.3
00 15.06 З 2 н/о н/о +2.3 -1.6 75 -1 -1 1000.7 996.3
03 15.06 З 3 50 км 10/8 600 м
[Cu Sc Ac As]
+4.6 -0.8 68 +1 +2 1000.8 996.5 +1.1 0
06 15.06 З 5 н/о н/о +6.8 +0.2 63 +3 +3 1000.6 996.3
09 15.06 ЮЗ 5
{10}
50 км в посл. час ливневой дождь 8/5 300 м
[Cb cap Ac trans Ci fib]
+7.9 +1.9 66 +4 +6 1000.5 996.3
12 15.06 ЮЗ 2
{10}
н/о н/о +6.7 +2.0 72 +5 +5 1000.6 996.4
15 15.06 ЮЗ 3 50 км 8/5 600 м
[Cb cap Ci fib]
+8.4 +0.2 56 +6 +7 1000.2 995.9 +9.2 1
18 15.06 ЮВ 1 н/о н/о +4.9 +2.1 82 +4 +4 1000.1 995.8
21 15.06 Ю 1 50 км {ливн. осадки} 8/4 600 м
[Sc Ac trans Ci fib]
+4.3 +2.5 88 +3 +3 999.5 995.2
00 16.06 ЮЗ 1 н/о н/о +5.5 +2.5 81 +4 +4 999.3 995.0
03 16.06 ЮЗ 3 50 км 5/3 600 м
[Cu med, cong Ac trans Ci fib]
+7.5 -0.0 59 +5 +8 999.0 994.7 +3.4 0.5
06 16.06 З 2 н/о н/о +9.2 -1.8 46 +8 +8 999.0 994.8
09 16.06 З 4 50 км 8/8 600 м
[Cu med, cong]
+11.4 -3.5 35 +10 +11 998.9 994.7
12 16.06 З 2 н/о н/о +11.3 -3.9 34 +11 +11 999.1 994.9
15 16.06 З 2 50 км 5/3 600 м
[Cu med, cong Ci fib]
+11.0 -4.8 33 +10 +11 999.1 994.9 +12.3

 

Местоположение метеостанции Полуй (Ямало-Ненецкий АО, Россия): широта 66.03 долгота 68.68 высота над уровнем моря 36 м.

В архиве по умолчанию представлена погода в Полуе за последнюю неделю. Архивные данные за месяц целиком и за предыдущие месяцы, начиная с января 2011 года, Вы можете получить, выбрав интересующий диапазон дат из раскрывающегося списка и нажав кнопку "Ввод!".


*Определитесь, кто Вы:
робот инопланетянин человек

Внимание! Время в таблицах - всемирное. Для получения местного времени необходимо прибавить поправку, которая равна 5 ч.

Смотрите также архив погоды в соседних городах и на ближайших метеорологических станциях:

Погода в Белоярске (Ямало-Ненецкий АО, Россия) (97 км)
Погода в Салехарде (Ямало-Ненецкий АО, Россия) (106 км)
Погода в Питляре (Ямало-Ненецкий АО, Россия) (127 км)
Погода в Харпе (Ямало-Ненецкий АО, Россия) (155 км)
Погода в Лонг-Югане (Ямало-Ненецкий АО, Россия) (175 км)
Погода в Надыме (Ямало-Ненецкий АО, Россия) (193 км)
Погода в Мужах (Ямало-Ненецкий АО, Россия) (195 км)
Погода в Ныде (Ямало-Ненецкий АО, Россия) (201 км)
Погода в Елецкой (Коми, Россия) (233 км)
Погода в Новом Порте (Ямало-Ненецкий АО, Россия) (260 км)

Пояснения к столбцам:

Ветер - указаны скорость ветра в м/с - средняя за 10 мин, порывы в срок и между сроками (в фигурных скобках) и направление, откуда дует ветер: С - северный, СВ - северо-восточный, В - восточный, ЮВ - юго-восточный, Ю - южный, ЮЗ - юго-западный, З - западный, СЗ - северо-западный.
Видимость - горизонтальная дальность видимости в метрах или километрах. При видимости от 1 до 10 км при отсутствии осадков обычно наблюдается дымка, при ухудшении видимости до 1 км и менее - туман. В сухую погоду видимость может ухудшаться дымом, пылью или мглою.
Явления - указаны атмосферные явления, наблюдавшиеся в срок или в последний час перед сроком; фигурными скобками обозначены явления, наблюдавшиеся между сроками (за 1-3 часа до срока); квадратными скобками обозначены град или гололедные отложения с указанием их диаметра в мм.
Облачность - указаны через наклонную черту общая и нижняя облачность в баллах и высота нижней границы облаков в метрах; квадратными скобками обозначены формы облаков: Ci - перистые, Cs - перисто-слоистые, Cc - перисто-кучевые, Ac - высококучевые, As - высокослоистые, Sc - слоисто-кучевые, Ns - слоисто-дождевые, Cu - кучевые, Cb - кучево-дождевые. Подробнее классификацию облаков см. в Атласе облаков (PDF).
T - Температура воздуха - температура, измеренная на высоте 2 м над землей.
Td - Температура точки росы - температура, при понижении до которой содержащийся в воздухе водяной пар достигнет насыщения.
f - Относительная влажность воздуха - влажноcть воздуха, измеренная на высоте 2 м над землей.
Te - Эффективная температура - температура, которую ощущает одетый по сезону человек в тени. Характеристика душности погоды. При расчете учитывается влияние влажности воздуха и скорости ветра на теплоощущения человека.
Tes - Эффективная температура на солнце - температура, которую ощущает человек, с поправкой на солнечный нагрев. Характеристика знойности погоды. Зависит от высоты солнца над горизонтом, облачности и скорости ветра. Ночью, в пасмурную погоду, а также при ветре 12 м/с и более поправка равна нулю.
P - Атмосферное давление - приведенное к уровню моря атмосферное давление.
Po - Атмосферное давление - измеренное на уровне метеостанции атмосферное давление.
Tmin - Минимальная температура - минимум температуры воздуха на высоте 2 м над землей.
Tmax - Максимальная температура - максимум температуры воздуха на высоте 2 м над землей.
R - Количество осадков - Количество выпавших осадков за период времени, мм. При наведении курсора мыши на число - период времени, за который выпало указанное количество осадков.
R24 - Количество осадков - Количество выпавших осадков за 24 часа, мм.
S - Снежный покров - Высота снежного покрова, см. При наведении курсора мыши на число - состояние снежного покрова и степень покрытия местности в баллах.